Location: Riedlingen
(48.1569°N, 9.4757°E)
Time: 03:24:50
(UTC+02:00)

ISS - Pass Details

Date: 15 May 2021
Orbit: 417 x 422 km, 51.6° (Epoch: 15 June)

Event Time Altitude Azimuth Distance (km) Brightness Sun altitude
Rises 02:01:37 0° 284° (WNW) 2,371 0.1 -22.3°
Reaches altitude 10° 02:03:46 10° 291° (WNW) 1,507 -0.9 -22.2°
Maximum altitude 02:07:03 46° 6° (N) 579 -2.7 -22.1°
Drops below altitude 10° 02:10:20 10° 81° (E) 1,508 -0.7 -22.0°
Sets 02:12:29 0° 88° (E) 2,373 0.3 -21.9°
